Terminal Aerodrome Forecast
Issued by NWS Sterling, VA

Current Version | Previous Version | Graphics & Text | Print | Product List | Glossary On
Versions: 1 2 3 4 5 6 7 8 9 10 11 12 13 14 15
000
FTUS41 KLWX 221140
TAFMRB
TAF
KMRB 221140Z 2212/2312 17007KT P6SM SKC
     FM221300 20013G21KT P6SM BKN110
     FM221500 21015G27KT P6SM BKN120
     FM221700 24014G33KT P6SM -SHRA SCT040 BKN060
     FM222000 27015G29KT P6SM BKN060
     FM230000 28009KT P6SM SCT250=

USA.gov is the U.S. government's official web portal to all federal, state and local government web resources and services.